Simultaneous Nadir Overpasses (SNOs) Predictions

Prediction of SNOs over PacNW region [( 10.00, 139.50) to ( 22.70, 165.60)] between AQUA and NPP Satellites:

Table of predicted SNOs over PacNW region for the next 30.0 days since TLE Epoch: 11/17/2016
Index Date (AQUA) Time (AQUA) AQUA Lat,Lon Date (NPP) Time (NPP) NPP Lat,Lon Distance(km) Time Diff (sec)
1 11/21/2016 15:58:56 22.63, 147.48 11/21/2016 16:02:25 23.34, 144.49 315.56 209
2 11/24/2016 02:41:55 22.68, 159.86 11/24/2016 02:38:25 26.88, 157.28 534.90 210
3 11/29/2016 15:09:33 22.59, 159.82 11/29/2016 15:11:43 23.17, 157.13 283.85 130
4 12/02/2016 03:31:22 22.64, 147.51 12/02/2016 03:27:53 22.44, 145.73 184.52 209
5 12/07/2016 15:58:59 22.64, 147.48 12/07/2016 16:02:24 23.33, 144.47 317.37 205
6 12/10/2016 02:41:56 22.64, 159.87 12/10/2016 02:38:27 27.11, 157.21 564.44 209




NCC Satellite Simultaneous Nadir Overpasses (SNOs) Prediction Service
